sat.trackr.live / text

‹ back to catalog

STARLINK-37395

NORAD 69148 · 2026-111A

PAYLOAD ACTIVE UNKNOWN

§ Identity

Operator
Country
US
Launch date
2026-05-21
Launch site
AFETR
Launch vehicle
Mass (kg)
RCS (m²)

Purposes: comms

External: N2YO · Heavens-Above · Gunter

§ Orbital elements

Epoch: 2026-09-19T18:45:36.343296Z

Period
93.85 min
Inclination
53.1598°
Eccentricity
0.0001509
Mean motion
15.34411924 rev/d
Perigee alt
461.6 km
Apogee alt
463.7 km
Semi-major
6,840.8 km
B*
7.5055e-4
RAAN
68.7095°
Arg perigee
86.9258°
Mean anomaly
273.1917°
Rev number
1,879

§ Raw data

STARLINK-373951 69148U 26111A   26262.78167064  .00025077  00000+0  75055-3 0  99912 69148  53.1598  68.7095 0001509  86.9258 273.1917 15.34411924 18798

JSON: /api/v1/satellites/69148 · /tle

For live sub-satellite position, see the globe view (requires WebGL).

§ Visibility from observer

Set your observer location to see the next 7 days of passes ≥ 10°. The values pass through the URL so the page stays shareable.

No JS? Fill the form by hand. The geolocation button needs JavaScript.